QPF
0.00 0.00 0.00 0.00 0.00 0.00 0.00 0.00 0.00 0.00 0.00 0.00 0.00 0.00 0.00 0.00 0.00 0.00 0.00 0.00 0.00 0.00 0.00 0.00 0.00 0.00 0.00 0.00 0.00 0.00 0.00 0.00 0.00 0.00 0.00 0.00 0.00 0.00 0.00 0.00 0.00 0.00 0.00 0.00 0.00 0.00 0.00
0.00 0.00 0.00 0.00 0.00 0.00 0.00 0.00 0.00 0.00 0.00 0.00 0.00 0.00 0.00 0.00 0.00 0.00 0.00 0.00 0.00 0.00 0.00 0.00 0.00 0.00 0.00 0.00 0.00 0.00 0.00 0.00 0.00 0.00 0.00 0.00 0.00 0.00 0.00 0.00 0.00 0.00 0.00 0.00 0.00 0.00 0.00
0.00 0.00 0.00 0.00 0.00 0.00 0.00 0.00 0.00 0.00 0.00 0.00 0.00 0.00 0.00 0.00 0.00 0.00 0.00 0.00 0.00 0.00 0.00 0.00 0.00 0.00 0.00 0.00 0.00 0.00 0.00 0.00 0.00 0.00 0.00 0.00 0.00 0.00 0.00 0.00 0.00 0.00 0.00 0.00 0.00 0.00 0.00
0.00 0.00 0.00 0.00 0.00 0.00 0.00 0.00 0.00 0.00 0.00 0.00 0.00 0.00 0.00 0.00 0.00 0.00 0.00 0.00 0.00 0.00 0.00 0.00 0.00 0.00 0.00 0.00 0.00 0.00 0.00 0.00 0.00 0.00 0.00 0.00 0.00 0.00 0.00 0.00 0.00 0.00 0.00 0.00 0.00 0.00 0.00
0.00 0.00 0.00 0.00 0.00 0.00 0.00 0.00 0.00 0.00 0.00 0.00 0.00 0.00 0.00 0.00 0.00 0.00 0.00 0.00 0.00 0.00 0.00 0.00 0.00 0.00 0.00 0.00 0.00 0.00 0.00 0.00 0.00 0.00 0.00 0.00 0.00 0.00 0.00 0.00 0.00 0.00 0.00 0.00 0.00 0.00 0.00
0.00 0.00 0.00 0.00 0.00 0.00 0.00 0.00 0.00 0.00 0.00 0.00 0.00 0.00 0.00 0.00 0.00 0.00 0.00 0.00 0.00 0.00 0.00 0.00 0.00 0.00 0.00 0.00 0.00 0.00 0.00 0.00 0.00 0.00 0.00 0.00 0.00 0.00 0.00 0.00 0.00 0.00 0.00 0.00 0.00 0.00 0.00
0.00 0.00 0.00 0.00 0.00 0.00 0.00 0.00 0.00 0.00 0.00 0.00 0.00 0.00 0.00 0.00 0.00 0.00 0.00 0.00 0.00 0.00 0.00 0.00 0.00 0.00 0.00 0.00 0.00 0.00 0.00 0.00 0.00 0.00 0.00 0.00 0.00 0.00 0.00 0.00 0.00 0.00 0.00 0.00 0.00 0.00 0.00
0.00 0.00 0.00 0.00 0.00 0.00 0.00 0.00 0.00 0.00 0.00 0.00 0.00 0.00 0.00 0.00 0.00 0.00 0.00 0.00 0.00 0.00 0.00 0.00 0.00 0.00 0.00 0.00 0.00 0.00 0.00 0.00 0.00 0.00 0.00 0.00 0.00 0.00 0.00 0.00 0.00 0.00 0.00 0.00 0.00 0.00 0.00
0.00 0.00 0.00 0.00 0.00 0.00 0.00 0.00 0.00 0.00 0.00 0.00 0.00 0.00 0.00 0.00 0.00 0.00 0.00 0.00 0.00 0.00 0.00 0.00 0.00 0.00 0.00 0.00 0.00 0.00 0.00 0.00 0.00 0.00 0.00 0.00 0.00 0.00 0.00 0.00 0.00 0.00 0.00 0.00 0.00 0.00 0.00
0.00 0.00 0.00 0.00 0.00 0.00 0.00 0.00 0.00 0.00 0.00 0.00 0.00 0.00 0.00 0.00 0.00 0.00 0.00 0.00 0.00 0.00 0.00 0.00 0.00 0.00 0.00 0.00 0.00 0.00 0.00 0.00 0.00 0.00 0.00 0.00 0.00 0.00 0.00 0.00 0.00 0.00 0.00 0.00 0.00 0.00 0.00
0.00 0.00 0.00 0.00 0.00 0.00 0.00 0.00 0.00 0.00 0.00 0.00 0.00 0.00 0.00 0.00 0.00 0.00 0.00 0.00 0.00 0.00 0.00 0.00 0.00 0.00 0.00 0.00 0.00 0.00 0.00 0.00 0.00 0.00 0.00 0.00 0.00 0.00 0.00 0.00 0.00 0.00 0.00 0.00 0.00 0.00 0.00
0.00 0.00 0.00 0.00 0.00 0.00 0.00 0.00 0.00 0.00 0.00 0.00 0.00 0.00 0.00 0.00 0.00 0.00 0.00 0.00 0.00 0.00 0.00 0.00 0.00 0.00 0.00 0.00 0.00 0.00 0.00 0.00 0.00 0.00 0.00 0.00 0.00 0.00 0.00 0.00 0.00 0.00 0.00 0.00 0.00 0.00 0.00
0.00 0.00 0.00 0.00 0.00 0.00 0.00 0.00 0.00 0.00 0.00 0.00 0.00 0.00 0.00 0.00 0.00 0.00 0.00 0.00 0.00 0.00 0.00 0.00 0.00 0.00 0.00 0.00 0.00 0.00 0.00 0.00 0.00 0.00 0.00 0.00 0.00 0.00 0.00 0.00 0.00 0.00 0.00 0.00 0.00 0.00 0.00
0.01 0.00 0.00 0.00 0.00 0.00 0.00 0.00 0.00 0.00 0.00 0.00 0.00 0.00 0.00 0.00 0.00 0.00 0.00 0.00 0.00 0.00 0.00 0.00 0.00 0.00 0.00 0.00 0.00 0.00 0.00 0.00 0.00 0.00 0.00 0.00 0.00 0.00 0.00 0.00 0.00 0.00 0.00 0.00 0.00 0.00 0.00
0.02 0.03 0.01 0.00 0.00 0.00 0.00 0.00 0.00 0.00 0.00 0.00 0.00 0.00 0.00 0.00 0.00 0.00 0.00 0.00 0.00 0.00 0.00 0.00 0.00 0.00 0.00 0.00 0.00 0.00 0.00 0.00 0.00 0.00 0.00 0.00 0.00 0.00 0.00 0.00 0.00 0.00 0.00 0.00 0.00 0.00 0.00
0.02 0.04 0.04 0.02 0.01 0.01 0.00 0.00 0.00 0.00 0.00 0.00 0.00 0.00 0.00 0.00 0.00 0.00 0.00 0.00 0.00 0.00 0.00 0.00 0.00 0.00 0.00 0.00 0.00 0.00 0.00 0.00 0.00 0.00 0.00 0.00 0.00 0.00 0.00 0.00 0.00 0.00 0.00 0.00 0.00 0.00 0.00
0.03 0.05 0.06 0.04 0.01 0.00 0.00 0.00 0.00 0.00 0.00 0.00 0.00 0.00 0.00 0.00 0.00 0.00 0.00 0.00 0.00 0.00 0.00 0.00 0.00 0.00 0.00 0.00 0.00 0.00 0.00 0.00 0.00 0.00 0.00 0.00 0.00 0.00 0.00 0.00 0.00 0.00 0.00 0.00 0.00 0.00 0.00
0.01 0.03 0.05 0.07 0.05 0.02 0.01 0.00 0.00 0.00 0.00 0.00 0.00 0.00 0.00 0.00 0.00 0.00 0.00 0.00 0.00 0.00 0.00 0.00 0.00 0.00 0.00 0.00 0.00 0.00 0.00 0.00 0.00 0.00 0.00 0.00 0.00 0.00 0.00 0.00 0.00 0.00 0.00 0.00 0.00 0.00 0.00
0.00 0.00 0.01 0.02 0.02 0.02 0.02 0.01 0.01 0.00 0.00 0.00 0.00 0.00 0.00 0.00 0.00 0.00 0.00 0.00 0.00 0.00 0.00 0.00 0.00 0.00 0.00 0.00 0.01 0.00 0.00 0.00 0.00 0.00 0.00 0.00 0.00 0.00 0.00 0.00 0.00 0.00 0.00 0.00 0.00 0.00 0.00
0.00 0.00 0.01 0.01 0.02 0.04 0.05 0.05 0.02 0.01 0.00 0.00 0.00 0.01 0.00 0.00 0.00 0.00 0.00 0.00 0.00 0.00 0.00 0.00 0.00 0.00 0.00 0.01 0.01 0.01 0.00 0.00 0.00 0.00 0.00 0.00 0.00 0.00 0.00 0.00 0.00 0.00 0.00 0.00 0.00 0.00 0.00
0.00 0.01 0.01 0.02 0.02 0.05 0.06 0.05 0.03 0.01 0.00 0.00 0.01 0.01 0.00 0.00 0.00 0.00 0.00 0.00 0.00 0.00 0.00 0.00 0.00 0.00 0.01 0.01 0.00 0.00 0.00 0.00 0.00 0.00 0.00 0.00 0.00 0.00 0.00 0.00 0.00 0.00 0.00 0.00 0.00 0.00 0.00
0.00 0.01 0.03 0.06 0.07 0.05 0.05 0.09 0.05 0.03 0.02 0.03 0.03 0.01 0.01 0.00 0.00 0.00 0.00 0.00 0.00 0.00 0.00 0.00 0.00 0.00 0.01 0.00 0.01 0.01 0.00 0.00 0.00 0.00 0.00 0.00 0.00 0.00 0.00 0.00 0.00 0.00 0.00 0.00 0.00 0.00 0.00
0.00 0.01 0.04 0.04 0.05 0.04 0.03 0.04 0.04 0.04 0.03 0.04 0.04 0.03 0.05 0.07 0.00 0.00 0.00 0.00 0.00 0.00 0.00 0.00 0.00 0.01 0.01 0.01 0.02 0.01 0.00 0.00 0.00 0.00 0.00 0.00 0.00 0.00 0.00 0.00 0.00 0.00 0.00 0.00 0.00 0.00 0.00
0.00 0.00 0.01 0.04 0.03 0.02 0.01 0.01 0.02 0.02 0.02 0.03 0.03 0.04 0.06 0.07 0.01 0.00 0.00 0.00 0.00 0.00 0.00 0.00 0.00 0.00 0.00 0.01 0.00 0.00 0.00 0.00 0.00 0.00 0.00 0.00 0.00 0.00 0.00 0.00 0.00 0.00 0.00 0.00 0.00 0.00 0.00
0.00 0.00 0.00 0.01 0.05 0.02 0.01 0.01 0.01 0.01 0.01 0.01 0.00 0.01 0.03 0.06 0.01 0.00 0.00 0.00 0.00 0.00 0.00 0.00 0.00 0.00 0.00 0.00 0.01 0.00 0.00 0.00 0.00 0.00 0.00 0.00 0.00 0.00 0.00 0.00 0.00 0.00 0.00 0.00 0.00 0.00 0.00
0.00 0.00 0.00 0.00 0.04 0.04 0.02 0.01 0.01 0.01 0.02 0.01 0.01 0.02 0.01 0.02 0.01 0.00 0.00 0.00 0.00 0.01 0.02 0.01 0.02 0.01 0.01 0.01 0.00 0.00 0.00 0.00 0.00 0.00 0.00 0.00 0.00 0.00 0.00 0.00 0.00 0.00 0.00 0.00 0.00 0.00 0.00
0.00 0.00 0.00 0.00 0.02 0.04 0.02 0.02 0.01 0.00 0.01 0.00 0.00 0.00 0.00 0.01 0.01 0.00 0.00 0.00 0.00 0.01 0.01 0.02 0.03 0.03 0.03 0.02 0.02 0.01 0.00 0.00 0.00 0.00 0.00 0.00 0.00 0.00 0.00 0.00 0.00 0.00 0.00 0.00 0.00 0.00 0.00
0.00 0.00 0.00 0.01 0.01 0.02 0.02 0.03 0.03 0.02 0.05 0.01 0.02 0.02 0.01 0.02 0.00 0.00 0.00 0.00 0.00 0.00 0.03 0.04 0.03 0.02 0.03 0.03 0.01 0.00 0.00 0.00 0.00 0.00 0.00 0.00 0.00 0.00 0.00 0.00 0.00 0.00 0.00 0.00 0.00 0.00 0.00
0.00 0.00 0.00 0.00 0.00 0.01 0.02 0.03 0.05 0.07 0.08 0.11 0.15 0.10 0.05 0.03 0.01 0.00 0.00 0.00 0.00 0.00 0.04 0.05 0.02 0.00 0.01 0.00 0.00 0.00 0.00 0.00 0.00 0.00 0.00 0.00 0.00 0.00 0.00 0.00 0.00 0.00 0.00 0.00 0.00 0.00 0.00
MSLP
1020.80 1020.73 1020.55 1020.46 1020.32 1020.22 1020.15 1020.04 1019.89 1019.71 1019.45 1019.16 1018.98 1018.74 1018.46 1018.13 1018.06 1017.94 1017.86 1017.79 1017.81 1017.82 1017.78 1017.58 1017.39 1017.30 1017.09 1016.70 1018.15 1018.23 1017.90 1017.42 1016.76 1016.18 1015.72 1015.36 1014.94 1014.71 1014.60 1015.25 1016.08 1017.22 1018.89 1020.01 1021.08 1021.68 1022.46
1020.77 1020.88 1020.80 1020.63 1020.49 1020.37 1020.31 1020.20 1020.02 1019.84 1019.57 1019.35 1019.18 1018.98 1018.75 1018.49 1018.26 1018.17 1018.19 1018.21 1018.29 1018.26 1018.12 1017.87 1017.52 1017.23 1016.64 1017.64 1019.07 1018.46 1017.92 1017.44 1017.00 1016.26 1016.11 1015.73 1015.36 1015.18 1015.41 1015.81 1016.25 1017.93 1019.34 1020.44 1021.45 1022.17 1023.18
1020.77 1020.82 1020.84 1020.81 1020.71 1020.57 1020.41 1020.25 1020.17 1020.00 1019.80 1019.59 1019.33 1019.06 1018.95 1018.79 1018.60 1018.42 1018.43 1018.53 1018.52 1018.43 1018.28 1018.10 1017.76 1016.95 1017.15 1019.16 1018.90 1018.66 1017.89 1017.74 1017.26 1016.68 1016.66 1016.65 1016.14 1015.81 1016.33 1017.20 1017.95 1018.63 1019.51 1020.48 1021.60 1022.47 1023.65
1020.81 1020.86 1020.82 1020.81 1020.77 1020.67 1020.57 1020.43 1020.24 1020.18 1020.05 1019.82 1019.58 1019.35 1019.10 1019.00 1018.84 1018.77 1018.74 1018.69 1018.65 1018.55 1018.36 1018.10 1017.85 1016.87 1018.18 1019.33 1019.01 1018.91 1018.18 1017.78 1017.62 1017.45 1017.42 1017.40 1016.92 1017.00 1017.00 1017.92 1018.24 1018.34 1019.10 1019.90 1021.87 1022.55 1023.95
1020.83 1020.97 1020.95 1020.82 1020.78 1020.67 1020.53 1020.55 1020.40 1020.29 1020.20 1020.05 1019.78 1019.49 1019.28 1019.13 1018.99 1018.86 1018.88 1018.82 1018.69 1018.61 1018.35 1018.02 1017.74 1016.94 1018.62 1019.17 1019.15 1019.35 1019.14 1018.59 1018.08 1017.82 1017.78 1017.57 1017.62 1017.82 1018.15 1017.80 1018.25 1018.64 1018.02 1019.60 1021.81 1022.84 1023.36
1020.71 1020.84 1020.86 1020.89 1020.85 1020.78 1020.68 1020.57 1020.55 1020.40 1020.19 1020.14 1019.96 1019.73 1019.44 1019.28 1019.18 1019.10 1018.98 1018.85 1018.48 1018.31 1017.94 1017.75 1017.66 1017.90 1019.33 1019.76 1019.93 1019.72 1019.42 1019.07 1018.56 1018.12 1017.95 1017.97 1017.93 1017.94 1018.30 1018.27 1018.12 1018.24 1019.03 1020.33 1021.01 1022.91 1023.46
1020.57 1020.71 1020.78 1020.76 1020.79 1020.75 1020.72 1020.70 1020.61 1020.49 1020.29 1020.25 1020.04 1019.83 1019.57 1019.42 1019.36 1019.31 1019.20 1018.67 1018.65 1018.16 1018.67 1019.24 1019.47 1019.57 1020.10 1020.62 1020.11 1020.16 1020.08 1019.44 1018.65 1018.54 1018.17 1018.67 1018.11 1018.66 1020.14 1020.53 1020.53 1020.42 1020.55 1020.97 1022.15 1023.39 1023.98
1020.27 1020.47 1020.62 1020.72 1020.73 1020.82 1020.66 1020.62 1020.57 1020.54 1020.36 1020.21 1020.16 1019.85 1019.70 1019.62 1019.61 1019.43 1018.88 1018.63 1019.53 1019.69 1019.67 1019.94 1019.99 1020.27 1020.68 1020.78 1020.09 1020.60 1020.19 1019.59 1019.08 1018.97 1019.21 1019.27 1019.87 1021.59 1021.98 1021.81 1021.62 1021.66 1021.96 1022.30 1023.06 1023.95 1024.54
1019.95 1020.12 1020.33 1020.58 1020.76 1020.79 1020.67 1020.76 1020.59 1020.58 1020.45 1020.28 1020.21 1020.05 1019.80 1019.77 1019.75 1019.43 1019.22 1019.64 1020.02 1019.72 1019.06 1020.21 1020.45 1020.59 1021.21 1021.03 1021.24 1021.49 1020.98 1020.53 1020.10 1020.07 1019.93 1019.90 1021.84 1022.87 1022.72 1022.76 1022.70 1022.90 1023.16 1023.59 1024.25 1024.53 1024.75
1019.51 1019.68 1019.91 1020.22 1020.43 1020.64 1020.66 1020.62 1020.57 1020.60 1020.59 1020.41 1020.27 1020.26 1020.12 1019.99 1020.16 1019.75 1019.70 1020.28 1020.18 1019.86 1019.09 1020.21 1020.45 1021.19 1021.30 1021.33 1021.96 1022.38 1022.22 1021.76 1021.09 1021.00 1021.31 1022.22 1023.44 1023.59 1023.73 1024.01 1024.22 1023.84 1024.38 1024.96 1025.13 1025.11 1023.99
1019.14 1019.31 1019.31 1019.72 1020.14 1020.36 1020.46 1020.57 1020.65 1020.56 1020.47 1020.44 1020.44 1020.46 1020.41 1020.02 1019.98 1019.96 1020.44 1020.51 1020.34 1019.90 1019.68 1020.60 1021.05 1021.68 1021.59 1021.58 1022.32 1022.54 1022.79 1021.54 1021.61 1022.03 1022.55 1023.06 1023.93 1024.30 1024.43 1024.84 1025.31 1025.28 1025.70 1025.68 1025.41 1024.99 1024.71
1018.72 1019.07 1019.40 1019.31 1019.62 1019.83 1020.15 1020.40 1020.69 1020.70 1020.66 1020.43 1020.46 1020.50 1020.61 1020.10 1020.01 1020.76 1020.61 1020.71 1020.35 1019.74 1018.96 1020.17 1020.88 1021.25 1021.45 1022.01 1022.45 1022.80 1022.63 1022.69 1022.65 1022.68 1022.80 1023.80 1024.73 1025.00 1025.09 1025.90 1026.22 1026.38 1026.11 1025.73 1025.52 1025.00 1024.50
1018.13 1018.44 1018.95 1019.23 1019.42 1019.75 1019.61 1020.01 1020.33 1020.59 1020.76 1020.62 1020.43 1020.60 1020.62 1020.58 1020.35 1020.74 1020.60 1020.05 1019.74 1018.78 1019.17 1019.89 1020.24 1020.72 1021.00 1021.79 1022.40 1022.47 1022.59 1022.61 1022.27 1022.74 1023.08 1024.37 1024.93 1025.87 1026.21 1026.19 1026.60 1026.64 1026.01 1024.88 1024.72 1024.61 1023.26
1017.43 1017.83 1018.31 1018.79 1019.20 1019.57 1019.82 1019.66 1019.98 1020.27 1020.52 1020.85 1020.66 1020.57 1021.16 1021.32 1021.24 1020.96 1020.53 1019.92 1019.15 1017.95 1018.47 1019.89 1020.41 1020.83 1020.82 1021.54 1022.11 1022.38 1022.36 1022.00 1022.68 1022.80 1022.42 1023.60 1024.76 1025.60 1026.18 1026.16 1025.92 1026.05 1025.96 1025.26 1024.40 1023.16 1023.28
1016.79 1017.29 1017.74 1018.15 1018.76 1019.21 1019.42 1019.73 1019.72 1020.12 1020.24 1020.62 1020.90 1021.11 1021.25 1021.59 1021.55 1021.28 1020.43 1019.51 1018.16 1018.39 1019.27 1019.97 1020.76 1020.73 1021.00 1021.74 1022.15 1022.38 1021.95 1021.37 1021.51 1022.63 1022.97 1022.97 1024.47 1026.26 1026.76 1027.09 1027.10 1026.55 1026.77 1026.71 1026.00 1024.98 1024.40
1016.14 1016.53 1017.01 1017.51 1018.11 1018.75 1019.26 1019.52 1019.57 1019.96 1020.28 1020.75 1020.71 1021.00 1021.80 1022.30 1021.82 1021.20 1020.22 1018.93 1018.75 1019.19 1019.78 1020.43 1020.13 1020.04 1020.00 1021.12 1022.01 1022.14 1021.44 1021.35 1022.66 1023.50 1024.05 1023.79 1025.07 1026.45 1027.65 1027.97 1028.13 1027.76 1027.72 1027.50 1026.98 1025.64 1024.09
1015.78 1015.96 1016.31 1016.89 1017.46 1018.21 1018.88 1019.10 1019.57 1019.86 1020.08 1020.67 1020.99 1021.53 1022.34 1022.22 1022.09 1021.47 1020.11 1019.11 1019.47 1019.94 1020.44 1020.79 1020.40 1020.43 1020.36 1020.88 1021.49 1021.67 1021.11 1022.52 1023.16 1024.47 1024.87 1024.72 1025.40 1027.09 1028.04 1027.70 1027.19 1028.49 1028.24 1028.22 1027.88 1026.49 1025.30
1015.91 1015.53 1015.70 1016.17 1016.95 1017.71 1018.33 1018.67 1019.15 1019.69 1019.98 1020.74 1021.30 1022.07 1022.57 1022.34 1022.32 1021.35 1020.31 1019.76 1020.30 1020.51 1021.23 1021.57 1021.72 1021.14 1021.21 1021.50 1021.87 1022.12 1022.05 1022.94 1024.03 1024.88 1025.28 1025.46 1025.75 1026.31 1026.97 1028.20 1028.63 1028.13 1027.71 1027.89 1027.61 1026.92 1026.40
1015.37 1015.34 1015.21 1015.78 1016.35 1017.05 1017.86 1018.45 1019.14 1019.42 1019.68 1020.74 1021.39 1022.43 1022.88 1022.62 1021.77 1020.83 1020.54 1020.67 1021.00 1021.02 1021.22 1021.55 1021.74 1021.88 1022.62 1022.72 1022.84 1022.50 1023.57 1025.00 1025.06 1025.53 1025.68 1026.37 1026.44 1026.69 1027.52 1029.05 1029.17 1028.89 1028.39 1028.21 1028.41 1027.79 1025.94
1014.92 1014.59 1014.73 1015.15 1015.92 1016.62 1017.46 1018.47 1018.94 1019.46 1019.93 1020.53 1021.37 1022.38 1023.16 1022.83 1021.71 1021.03 1020.39 1020.50 1020.99 1021.25 1021.34 1021.69 1022.04 1022.73 1023.49 1024.11 1024.28 1024.31 1024.87 1025.96 1026.36 1026.44 1027.01 1027.09 1026.96 1026.30 1026.19 1026.95 1027.32 1028.35 1027.76 1028.16 1028.32 1027.22 1024.84
1014.58 1014.02 1013.79 1014.61 1015.33 1016.19 1017.16 1018.19 1019.12 1019.34 1019.80 1020.54 1021.40 1021.54 1021.38 1022.20 1021.38 1021.02 1020.68 1020.32 1020.73 1021.55 1022.20 1022.46 1022.74 1022.90 1023.49 1024.38 1025.23 1025.70 1025.74 1027.08 1027.50 1027.50 1028.13 1028.18 1027.85 1027.32 1027.11 1027.79 1028.26 1028.04 1027.92 1027.96 1027.72 1025.78 1025.04
1014.56 1013.85 1013.39 1013.85 1014.90 1015.78 1016.88 1017.81 1018.66 1019.29 1019.86 1020.79 1021.16 1021.90 1022.23 1021.74 1020.90 1020.81 1020.94 1020.45 1020.25 1020.96 1022.26 1022.48 1022.87 1023.16 1024.01 1024.52 1025.08 1026.03 1026.69 1027.48 1027.36 1028.36 1029.07 1029.51 1028.71 1028.70 1028.18 1028.35 1028.93 1028.50 1028.32 1027.74 1027.18 1026.61 1025.39
1014.41 1014.17 1013.78 1014.13 1014.90 1015.81 1016.85 1017.55 1018.47 1019.23 1019.74 1020.84 1021.25 1021.69 1021.46 1021.59 1021.48 1021.16 1020.17 1019.47 1020.01 1020.85 1022.06 1022.88 1023.20 1024.45 1025.27 1025.59 1026.31 1027.44 1027.54 1027.85 1027.89 1028.44 1029.20 1029.92 1029.74 1029.62 1028.42 1029.09 1029.20 1027.99 1026.54 1025.90 1025.41 1025.29 1024.94
1014.43 1014.31 1014.37 1014.45 1014.71 1015.51 1016.43 1017.32 1018.05 1018.86 1019.20 1020.12 1020.65 1021.16 1021.61 1020.99 1021.43 1020.51 1020.01 1020.48 1020.57 1021.35 1022.43 1024.09 1024.36 1025.13 1026.90 1027.30 1027.53 1028.16 1028.79 1029.22 1029.34 1029.83 1029.68 1029.90 1030.10 1029.85 1029.09 1029.57 1027.63 1024.62 1024.96 1025.19 1025.23 1024.91 1025.12
1014.32 1014.26 1013.99 1014.21 1014.38 1014.82 1015.81 1016.85 1017.78 1018.31 1019.08 1019.85 1020.30 1020.86 1021.24 1020.79 1020.83 1020.53 1020.58 1021.06 1021.80 1022.65 1023.96 1024.80 1026.07 1026.71 1027.09 1027.32 1027.61 1028.10 1028.58 1029.11 1029.80 1030.56 1030.87 1030.69 1030.20 1029.90 1029.29 1028.01 1024.58 1024.55 1025.62 1026.26 1026.14 1026.05 1026.38
1014.40 1013.82 1013.69 1013.92 1014.21 1014.26 1015.06 1015.95 1017.05 1017.78 1018.68 1019.64 1020.14 1020.61 1021.13 1021.42 1020.78 1020.61 1020.86 1021.62 1022.21 1023.33 1025.03 1026.14 1027.34 1027.58 1027.81 1027.23 1026.91 1026.77 1026.13 1026.59 1028.71 1030.33 1031.18 1031.17 1030.83 1029.93 1029.80 1028.33 1025.73 1025.47 1026.47 1027.30 1027.76 1027.92 1028.06
1013.93 1013.72 1013.50 1013.48 1013.59 1013.80 1014.46 1015.39 1016.25 1017.05 1017.95 1018.94 1020.14 1020.80 1021.04 1021.69 1021.97 1021.90 1022.21 1022.45 1022.77 1023.54 1024.87 1026.60 1027.57 1028.36 1028.03 1026.91 1026.00 1025.40 1024.87 1025.44 1026.41 1027.81 1029.79 1030.54 1030.62 1029.71 1028.93 1027.94 1026.03 1026.52 1027.66 1028.86 1029.77 1029.66 1029.66
1013.77 1013.47 1013.12 1012.79 1013.00 1013.35 1013.76 1014.46 1015.39 1016.35 1017.28 1018.54 1020.73 1021.23 1020.99 1021.65 1023.13 1023.72 1023.80 1023.76 1024.10 1024.20 1025.10 1026.89 1027.74 1027.75 1027.57 1026.73 1025.31 1024.16 1023.75 1024.33 1024.95 1025.68 1026.76 1027.42 1028.60 1028.75 1028.76 1028.84 1028.12 1028.03 1029.52 1030.46 1031.03 1030.38 1030.43
1012.99 1012.87 1012.63 1012.28 1012.03 1011.77 1012.91 1013.75 1014.76 1015.84 1017.07 1018.24 1020.56 1021.52 1021.62 1022.19 1024.47 1025.04 1025.54 1025.97 1025.73 1025.41 1025.49 1026.27 1025.97 1025.67 1025.65 1025.40 1024.45 1023.42 1023.64 1024.33 1024.15 1024.90 1026.33 1026.78 1026.52 1026.98 1027.14 1027.42 1028.50 1029.68 1030.62 1031.46 1031.70 1031.73 1031.19
Thickness
5636 5636 5636 5636 5635 5635 5635 5634 5634 5634 5634 5636 5635 5635 5635 5634 5633 5633 5632 5631 5629 5627 5627 5627 5629 5630 5632 5632 5619 5618 5621 5625 5629 5634 5635 5637 5638 5639 5636 5634 5630 5616 5604 5598 5592 5590 5587
5633 5632 5632 5632 5632 5631 5630 5631 5631 5631 5631 5632 5632 5631 5631 5630 5629 5628 5627 5625 5623 5622 5622 5623 5625 5628 5634 5624 5610 5614 5618 5622 5625 5630 5629 5632 5632 5636 5630 5629 5628 5613 5601 5594 5589 5585 5579
5628 5628 5628 5628 5627 5627 5626 5627 5627 5627 5627 5627 5628 5629 5627 5626 5625 5625 5623 5620 5619 5619 5619 5619 5621 5626 5623 5607 5609 5610 5616 5616 5620 5624 5621 5622 5627 5627 5622 5609 5609 5603 5594 5591 5585 5580 5567
5623 5623 5623 5623 5623 5623 5622 5622 5623 5622 5622 5623 5623 5624 5624 5623 5622 5620 5618 5616 5615 5615 5617 5618 5619 5626 5610 5604 5606 5606 5610 5613 5614 5615 5613 5613 5618 5612 5613 5606 5603 5602 5600 5596 5574 5575 5560
5619 5618 5618 5618 5618 5619 5619 5617 5617 5617 5617 5617 5618 5619 5620 5619 5618 5616 5614 5612 5612 5612 5614 5616 5617 5623 5607 5603 5602 5599 5600 5602 5606 5608 5608 5609 5607 5602 5600 5602 5598 5595 5612 5597 5569 5565 5566
5615 5614 5614 5614 5613 5613 5613 5613 5612 5612 5612 5613 5613 5613 5614 5614 5613 5612 5610 5610 5611 5611 5612 5613 5614 5612 5598 5593 5592 5593 5593 5595 5597 5600 5601 5599 5600 5601 5598 5600 5610 5607 5596 5581 5583 5558 5558
5610 5609 5609 5609 5609 5608 5607 5607 5607 5607 5606 5607 5609 5609 5609 5609 5608 5606 5605 5609 5610 5612 5601 5591 5590 5591 5587 5583 5587 5585 5583 5587 5594 5592 5594 5588 5599 5595 5572 5567 5565 5569 5572 5572 5559 5545 5539
5606 5605 5604 5603 5603 5601 5602 5602 5602 5602 5601 5601 5602 5604 5604 5603 5602 5601 5602 5605 5597 5595 5590 5585 5584 5582 5578 5577 5586 5577 5580 5585 5587 5584 5582 5585 5577 5554 5550 5553 5558 5558 5551 5555 5545 5531 5525
5602 5601 5599 5597 5596 5595 5596 5595 5596 5596 5596 5595 5595 5595 5597 5597 5595 5595 5596 5592 5586 5586 5596 5579 5575 5575 5568 5572 5565 5563 5570 5571 5574 5571 5574 5583 5556 5537 5544 5542 5544 5541 5537 5533 5520 5518 5517
5597 5598 5596 5593 5591 5589 5589 5589 5590 5589 5589 5589 5588 5587 5587 5589 5588 5588 5588 5579 5578 5578 5596 5579 5573 5565 5564 5563 5554 5550 5550 5557 5561 5562 5559 5547 5529 5529 5532 5524 5521 5535 5519 5503 5498 5498 5533
5591 5592 5593 5590 5587 5585 5584 5582 5581 5582 5582 5581 5580 5579 5578 5580 5580 5583 5575 5570 5570 5573 5588 5563 5559 5554 5554 5558 5548 5545 5540 5555 5551 5541 5540 5538 5519 5517 5520 5515 5504 5508 5494 5490 5491 5494 5496
5586 5585 5584 5586 5584 5583 5580 5576 5574 5573 5573 5574 5572 5570 5569 5573 5572 5565 5564 5561 5565 5580 5588 5561 5554 5551 5551 5543 5537 5534 5535 5534 5535 5531 5532 5517 5510 5509 5512 5494 5488 5483 5484 5484 5481 5487 5474
5582 5582 5577 5578 5577 5575 5577 5573 5570 5567 5564 5565 5566 5563 5561 5560 5566 5557 5556 5562 5571 5580 5566 5561 5555 5548 5551 5540 5528 5529 5529 5527 5539 5523 5524 5501 5498 5488 5486 5486 5479 5474 5481 5510 5503 5479 5523
5581 5578 5575 5572 5570 5568 5567 5569 5566 5563 5559 5555 5556 5557 5553 5548 5547 5547 5550 5559 5561 5581 5574 5537 5539 5537 5547 5533 5527 5519 5521 5533 5513 5511 5539 5514 5502 5484 5480 5483 5488 5481 5479 5500 5513 5534 5517
5577 5574 5572 5569 5563 5561 5561 5559 5560 5556 5554 5550 5546 5545 5545 5541 5540 5539 5550 5556 5574 5571 5551 5535 5524 5531 5534 5516 5512 5510 5521 5537 5533 5508 5516 5523 5506 5463 5461 5459 5460 5466 5453 5439 5436 5440 5448
5574 5572 5569 5566 5561 5556 5553 5551 5552 5549 5546 5540 5540 5541 5534 5528 5530 5535 5548 5558 5559 5542 5533 5528 5547 5543 5550 5521 5503 5504 5524 5522 5496 5484 5475 5491 5477 5453 5437 5437 5433 5433 5430 5430 5430 5430 5454
5569 5569 5566 5563 5558 5552 5547 5546 5543 5539 5538 5532 5530 5528 5520 5519 5518 5528 5542 5553 5539 5524 5521 5520 5536 5530 5531 5515 5504 5506 5525 5487 5482 5460 5458 5466 5459 5438 5424 5429 5444 5412 5412 5401 5394 5411 5441
5559 5565 5563 5561 5554 5548 5543 5541 5537 5532 5529 5522 5519 5522 5509 5509 5517 5523 5530 5539 5515 5512 5501 5498 5494 5508 5511 5501 5489 5494 5502 5485 5464 5448 5443 5445 5445 5443 5436 5401 5394 5404 5418 5403 5414 5408 5388
5557 5557 5560 5556 5552 5548 5541 5534 5528 5527 5523 5514 5511 5499 5495 5496 5511 5519 5514 5505 5498 5498 5497 5495 5491 5489 5470 5476 5473 5487 5468 5434 5442 5434 5435 5421 5432 5437 5417 5385 5380 5379 5383 5378 5347 5354 5383
5554 5557 5554 5552 5548 5543 5536 5526 5523 5519 5514 5509 5501 5492 5485 5484 5497 5502 5511 5505 5500 5490 5490 5485 5479 5468 5453 5447 5444 5443 5441 5417 5417 5417 5405 5403 5405 5425 5468 5411 5401 5370 5381 5364 5349 5363 5392
5548 5553 5555 5549 5544 5539 5530 5521 5514 5511 5506 5500 5491 5496 5494 5476 5491 5493 5497 5501 5491 5479 5470 5469 5462 5462 5453 5434 5428 5421 5425 5400 5396 5397 5382 5381 5384 5394 5389 5369 5359 5370 5369 5354 5339 5360 5364
5541 5547 5550 5548 5539 5533 5525 5516 5509 5502 5497 5488 5483 5481 5470 5474 5479 5484 5478 5484 5488 5484 5459 5456 5455 5456 5442 5439 5433 5422 5405 5391 5394 5379 5362 5343 5375 5346 5354 5349 5327 5327 5331 5339 5335 5333 5336
5534 5536 5539 5537 5532 5524 5516 5510 5502 5493 5488 5478 5471 5466 5472 5466 5464 5463 5476 5486 5475 5474 5457 5444 5443 5429 5421 5418 5401 5376 5380 5373 5381 5365 5356 5333 5339 5328 5373 5309 5302 5318 5325 5337 5344 5335 5321
5525 5526 5526 5526 5525 5519 5511 5502 5495 5488 5483 5475 5469 5463 5459 5472 5451 5462 5466 5463 5462 5455 5447 5416 5418 5413 5384 5374 5369 5361 5345 5334 5332 5320 5335 5330 5324 5321 5340 5288 5340 5375 5323 5327 5334 5331 5313
5518 5519 5521 5521 5519 5515 5506 5497 5487 5482 5474 5467 5462 5455 5449 5457 5450 5454 5453 5443 5429 5416 5405 5401 5384 5375 5369 5365 5362 5356 5353 5338 5317 5301 5296 5294 5315 5307 5317 5331 5373 5362 5303 5302 5300 5312 5288
5508 5514 5516 5513 5511 5510 5503 5495 5483 5475 5466 5458 5452 5444 5436 5438 5445 5444 5440 5429 5424 5412 5383 5368 5355 5355 5349 5357 5356 5357 5380 5380 5325 5295 5280 5277 5271 5293 5268 5292 5338 5321 5286 5262 5260 5291 5242
5503 5506 5509 5510 5509 5506 5499 5490 5480 5471 5462 5451 5441 5431 5427 5422 5414 5417 5418 5410 5408 5398 5386 5354 5341 5333 5334 5345 5348 5356 5366 5347 5341 5321 5277 5270 5266 5270 5284 5289 5317 5282 5261 5236 5278 5282 5210
5497 5500 5504 5506 5504 5500 5496 5488 5478 5467 5457 5445 5426 5418 5417 5413 5391 5383 5382 5393 5385 5386 5376 5344 5337 5331 5325 5332 5342 5357 5358 5340 5334 5324 5294 5293 5272 5265 5267 5263 5274 5249 5228 5252 5213 5208 5199
5495 5497 5499 5502 5503 5504 5493 5484 5474 5461 5449 5437 5417 5405 5400 5393 5371 5362 5356 5352 5352 5352 5356 5338 5345 5337 5332 5330 5336 5349 5333 5304 5332 5335 5281 5291 5299 5294 5285 5286 5226 5214 5201 5187 5181 5174 5179